MET-2/21
1 22782U 93055A   05307.47918062  .00000119  00000-0  93621-4 0  3423
2 22782 082.5474 150.5096 0023864 092.6511 267.7381 13.83599031614834
OKEAN-4
1 23317U 94066A   05307.75583253  .00000271  00000-0  30860-4 0  7768
2 23317 082.5361 127.2586 0023577 040.1903 320.1042 14.82252794596584
NOAA-14
1 23455U 94089A   05307.79833120  .00000160  00000-0  84590-4 0  8476
2 23455 099.0734 358.2953 0008901 331.2688 028.8475 14.13609222559314
SICH-1
1 23657U 95046A   05302.73440114  .00000314  00000-0  37101-4 0 05788
2 23657 082.5245 272.7775 0025553 043.1063 317.2150 14.81253757547878
NOAA-15
1 25338U 98030A   05307.84446429  .00000053  00000-0  22995-4 0  2551
2 25338 098.5155 311.9511 0010064 316.2220 043.8635 14.24545849388648
RESURS
1 25394U 98043A   05307.82005733  .00000009  00000-0  22473-4 0  2208
2 25394 098.5250 012.9573 0002287 100.5463 259.5973 14.24084740380329
FENGYUN1
1 25730U 99025A   05307.61056419  .00000282  00000-0  17728-3 0  5647
2 25730 098.6133 303.8704 0015289 064.4114 295.8620 14.11803885334189
OKEAN-0
1 25860U 99039A   05302.64190920  .00000331  00000-0  58363-4 0 05770
2 25860 097.7484 322.5744 0001673 104.1066 256.0334 14.73307447337808
NOAA-16
1 26536U 00055A   05307.78819072  .00000193  00000-0  10509-3 0  6009
2 26536 099.0340 267.1632 0011177 037.1529 323.0886 14.12287225263768
NOAA-17
1 27453U 02032A   05307.72348088  .00000179  00000-0  78595-4 0  6210
2 27453 098.6494 019.0407 0011956 015.1109 345.0916 14.23717770174697
NOAA-18
1 28654U 05018A   05302.73458514 -.00000047  00000-0 -22475-5 0 02166
2 28654 098.7582 246.2801 0014460 150.9722 209.2248 14.10895567022883
HUBBLE
1 20580U 90037B   05306.73629174  .00000475  00000-0  24375-4 0 04791
2 20580 028.4659 085.9233 0003541 296.5441 063.4784 14.99879664651068
UARS
1 21701U 91063B   05302.66643316 -.00000020  00000-0  10984-4 0 05923
2 21701 056.9789 001.6746 0117740 129.0248 232.1319 15.31446093773775
PO-34
1 25520U 98064B   05302.89931315  .00000605  00000-0  20413-4 0 03269
2 25520 028.4576 131.5185 0005259 250.0831 109.9196 15.16489528387059
ISS
1 25544U 98067A   05308.18021991  .00020915  00000-0  14432-3 0  6819
2 25544 051.6436 263.4448 0001805 106.0296 093.7046 15.74540166397711
OO-38
1 26063U 00004C   05302.69636543 -.00000002  00000-0  19502-4 0 04734
2 26063 100.1946 187.2095 0037092 037.0743 323.2995 14.35738847301600
NO-45
1 26932U 01043D   05306.74963784 -.00000192  00000-0 -42861-4 0 01656
2 26932 067.0574 230.5857 0003695 275.0213 085.0473 14.29503200213601
